Hickory, NC

2:04 AM EST on February 14, 2016 (GMT -0500)
Hickory Regional

Weather History for KHKY - June, 2012

Change the Weather History Date:

Friday, June 1, 2012

  Actual Average Record
Temperature  
Mean Temperature 70 °F -  
Max Temperature 80 °F 81 °F 95 °F (1985)
Min Temperature 59 °F 59 °F 42 °F (1966)
Cooling Degree Days 6    
Growing Degree Days 20 (Base 50)    
Moisture  
Dew Point 61 °F    
Average Humidity 76    
Maximum Humidity 94    
Minimum Humidity 54    
Precipitation  
Precipitation 0.06 in - - ()
Sea Level Pressure  
Sea Level Pressure 29.77 in    
Wind  
Wind Speed 6 mph (WSW)    
Max Wind Speed 17 mph    
Max Gust Speed 28 mph    
Visibility 9 miles    
Events Rain    
Averages and records for this station are not official NWS values.
T = Trace of Precipitation, MM = Missing Value Source: NWS Daily Summary

Daily Weather History Graph

Daily Weather History Graph

Search for Another Location

Airport or City:

Trip Planner

Search our weather history database for the weather conditions in past years. The results will help you decide how hot, cold, wet, or windy it might be!

Date:

Astronomy

Jun. 01, 2012 Rise Set
Actual Time 6:10 AM EDT 8:36 PM EDT
Civil Twilight 5:41 AM EDT 9:06 PM EDT
Nautical Twilight 5:04 AM EDT 9:42 PM EDT
Astronomical Twilight 4:24 AM EDT 10:22 PM EDT
Moon 5:40 PM EDT (6/1) 3:40 AM EDT (6/1)
Length of Visible Light 15h 25m
Length of Day
14h 25m
Waxing Gibbous, 89% of the Moon is Illuminated
Jun 1
Waxing Gibbous
Jun 4
Full
Jun 11
Last Quarter
Jun 19
New
Jun 26
First Quarter

Hourly Weather History & Observations

Time (EDT) Temp. Dew Point Humidity Pressure Visibility Wind Dir Wind Speed Gust Speed Precip Events Conditions
12:53 AM 69.1 °F 62.1 °F 78% 29.81 in 10.0 mi NE 3.5 mph - N/A   Partly Cloudy
1:53 AM 69.1 °F 62.1 °F 78% 29.80 in 10.0 mi Calm Calm - N/A   Clear
2:53 AM 70.0 °F 62.1 °F 76% 29.79 in 10.0 mi Calm Calm - N/A   Scattered Clouds
3:53 AM 71.1 °F 63.0 °F 75% 29.75 in 10.0 mi Calm Calm - 0.00 in Rain Light Rain
4:53 AM 69.1 °F 62.1 °F 78% 29.75 in 10.0 mi South 4.6 mph - 0.00 in   Mostly Cloudy
5:53 AM 68.0 °F 61.0 °F 78% 29.76 in 10.0 mi South 6.9 mph - N/A   Partly Cloudy
6:53 AM 66.9 °F 61.0 °F 81% 29.75 in 10.0 mi Variable 3.5 mph - N/A   Overcast
7:53 AM 68.0 °F 62.1 °F 81% 29.77 in 10.0 mi Calm Calm - N/A   Mostly Cloudy
8:53 AM 69.1 °F 63.0 °F 81% 29.78 in 10.0 mi SSW 4.6 mph - N/A   Partly Cloudy
9:19 AM 71.6 °F 62.6 °F 73% 29.84 in 10.0 mi South 8.1 mph - N/A   Mostly Cloudy
9:53 AM 71.1 °F 63.0 °F 75% 29.79 in 10.0 mi South 10.4 mph - N/A   Mostly Cloudy
10:53 AM 71.1 °F 63.0 °F 75% 29.78 in 10.0 mi SSW 9.2 mph - N/A   Mostly Cloudy
11:26 AM 71.6 °F 62.6 °F 73% 29.84 in 10.0 mi SW 8.1 mph - N/A   Overcast
12:21 PM 73.4 °F 64.4 °F 73% 29.83 in 10.0 mi South 12.7 mph 19.6 mph N/A   Mostly Cloudy
12:45 PM 73.4 °F 62.6 °F 69% 29.82 in 10.0 mi South 12.7 mph 21.9 mph N/A   Mostly Cloudy
12:53 PM 73.9 °F 63.0 °F 68% 29.75 in 10.0 mi South 12.7 mph - N/A   Overcast
1:53 PM 78.8 °F 64.4 °F 61% 29.79 in 10.0 mi South 11.5 mph - N/A   Mostly Cloudy
2:53 PM 78.1 °F 62.1 °F 58% 29.68 in 10.0 mi SW 12.7 mph 21.9 mph N/A   Mostly Cloudy
3:53 PM 79.0 °F 61.0 °F 54% 29.67 in 10.0 mi SW 13.8 mph 24.2 mph N/A   Mostly Cloudy
4:53 PM 79.0 °F 62.1 °F 56% 29.67 in 10.0 mi SSW 17.3 mph 27.6 mph N/A   Overcast
5:43 PM 64.4 °F 60.8 °F 88% 29.76 in 1.8 mi NW 9.2 mph - 0.05 in Rain Heavy Rain
5:51 PM 64.4 °F 60.8 °F 88% 29.77 in 3.0 mi NW 9.2 mph - 0.06 in Rain Light Rain
5:53 PM 64.0 °F 61.0 °F 90% 29.72 in 5.0 mi NW 10.4 mph - 0.06 in Rain Rain
6:04 PM 64.4 °F 62.6 °F 94% 29.77 in 2.0 mi NW 8.1 mph - 0.04 in Rain Light Rain
6:12 PM 64.4 °F 62.6 °F 94% 29.77 in 10.0 mi NW 8.1 mph - 0.04 in   Overcast
6:53 PM 66.2 °F 62.6 °F 88% 29.76 in 10.0 mi WNW 4.6 mph - N/A   Mostly Cloudy
7:53 PM 68.0 °F 62.1 °F 81% 29.71 in 10.0 mi West 4.6 mph - N/A   Partly Cloudy
8:53 PM 66.0 °F 57.0 °F 73% 29.72 in 10.0 mi NW 4.6 mph - N/A   Clear
9:53 PM 64.0 °F 52.0 °F 65% 29.74 in 10.0 mi NW 8.1 mph - N/A   Clear
10:53 PM 62.1 °F 52.0 °F 70% 29.78 in 10.0 mi NW 5.8 mph - N/A   Clear
11:53 PM 59.0 °F 52.0 °F 78% 29.80 in 10.0 mi North 3.5 mph - N/A   Clear